Weather History for Phoenix Deer Valley, AZ

Change the Weather History Date:

Saturday, March 16, 2013

  Actual Average Record
Temperature  
Mean Temperature 70 °F -  
Max Temperature 82 °F 74 °F 96 °F (2007)
Min Temperature 57 °F 50 °F 39 °F (2005)
Cooling Degree Days 4    
Growing Degree Days 20 (Base 50)    
Moisture  
Dew Point 34 °F    
Average Humidity 29    
Maximum Humidity 55    
Minimum Humidity 13    
Precipitation  
Precipitation 0.00 in - - ()
Sea Level Pressure  
Sea Level Pressure 29.75 in    
Wind  
Wind Speed 4 mph (ESE)    
Max Wind Speed 13 mph    
Max Gust Speed -    
Visibility 10 miles    
Events      
Averages and records for this station are not official NWS values.
T = Trace of Precipitation, MM = Missing Value Source: NWS Daily Summary

Daily Weather History Graph

Daily Weather History Graph

Search for Another Location

Airport:

Trip Planner

Search our weather history database for the weather conditions in past years. The results will help you decide how hot, cold, wet, or windy it might be!

Date:

Astronomy

Mar. 16, 2013 Rise Set
Actual Time 6:36 AM MST 6:37 PM MST
Civil Twilight 6:12 AM MST 7:01 PM MST
Nautical Twilight 5:43 AM MST 7:30 PM MST
Astronomical Twilight 5:14 AM MST 8:00 PM MST
Moon 9:23 AM MST (3/16) 11:33 PM MST (3/16)
Length of Visible Light 12h 49m
Length of Day
12h 00m
Waxing Crescent, 24% of the Moon is Illuminated
Mar 16
Waxing Crescent
Mar 19
First Quarter
Mar 27
Full
Apr 2
Last Quarter
Apr 10
New

Hourly Weather History & Observations

Time (MST) Temp. Dew Point Humidity Pressure Visibility Wind Dir Wind Speed Gust Speed Precip Events Conditions
12:53 AM 64.9 °F 39.0 °F 39% 29.81 in 10.0 mi Calm Calm - N/A   Clear
1:53 AM 63.0 °F 39.0 °F 41% 29.80 in 10.0 mi Calm Calm - N/A   Clear
2:53 AM 59.0 °F 39.9 °F 49% 29.79 in 10.0 mi East 3.5 mph - N/A   Clear
3:53 AM 57.0 °F 41.0 °F 55% 29.78 in 10.0 mi Calm Calm - N/A   Clear
4:53 AM 63.0 °F 37.0 °F 38% 29.77 in 10.0 mi ESE 3.5 mph - N/A   Clear
5:53 AM 60.1 °F 39.0 °F 46% 29.78 in 10.0 mi Calm Calm - N/A   Clear
6:53 AM 63.0 °F 37.0 °F 38% 29.78 in 10.0 mi East 4.6 mph - N/A   Clear
7:53 AM 66.0 °F 36.0 °F 33% 29.80 in 10.0 mi East 6.9 mph - N/A   Clear
8:53 AM 68.0 °F 39.0 °F 35% 29.81 in 10.0 mi East 5.8 mph - N/A   Clear
9:53 AM 73.0 °F 32.0 °F 22% 29.81 in 10.0 mi SE 12.7 mph - N/A   Clear
10:53 AM 75.9 °F 32.0 °F 20% 29.81 in 10.0 mi SE 6.9 mph - N/A   Clear
11:53 AM 78.1 °F 33.1 °F 19% 29.78 in 10.0 mi Variable 4.6 mph - N/A   Clear
12:53 PM 80.1 °F 32.0 °F 17% 29.76 in 10.0 mi South 8.1 mph - N/A   Clear
1:53 PM 81.0 °F 32.0 °F 17% 29.73 in 10.0 mi WSW 6.9 mph - N/A   Clear
2:53 PM 82.0 °F 30.9 °F 16% 29.70 in 10.0 mi West 8.1 mph - N/A   Clear
3:53 PM 82.9 °F 28.9 °F 14% 29.68 in 10.0 mi SW 3.5 mph - N/A   Clear
4:53 PM 82.0 °F 27.0 °F 13% 29.68 in 10.0 mi West 9.2 mph - N/A   Clear
5:53 PM 81.0 °F 27.0 °F 14% 29.68 in 10.0 mi WSW 10.4 mph - N/A   Clear
6:53 PM 77.0 °F 28.0 °F 17% 29.68 in 10.0 mi Calm Calm - N/A   Clear
7:53 PM 75.0 °F 28.9 °F 18% 29.69 in 10.0 mi NE 4.6 mph - N/A   Clear
8:53 PM 69.1 °F 36.0 °F 30% 29.72 in 10.0 mi NNE 3.5 mph - N/A   Clear
9:53 PM 66.0 °F 37.9 °F 36% 29.72 in 10.0 mi East 8.1 mph - N/A   Clear
10:53 PM 66.0 °F 36.0 °F 33% 29.73 in 10.0 mi NNE 3.5 mph - N/A   Clear
11:53 PM 66.0 °F 35.1 °F 32% 29.72 in 10.0 mi ENE 3.5 mph - N/A   Clear